contact:dominique.lefevre@mio.osupytheas.fr, maurice.libes@osupytheas.fr, didier.mallarino@osupytheas.fr
Project:EMSO http://www.emso-fr.org/EMSO-France
Depth: 2436.0 m
Title:EMSO Ligure Ouest : Data MII capteur MICROCAT
DateTime_Computer,Latitude,Longitude,Temperature,Conductivity,Pressure,DateTime_Instrument
DateTime_Computer,Latitude,Longitude,degC,S m-1,dbar,DateTime_Instrument
2020-11-09T00:00:16Z,42.805,6.029,13.2974,4.59978,2470.18,2020-11-09T02:01:12Z
2020-11-09T00:03:19Z,42.805,6.029,13.2979,4.59979,2470.203,2020-11-09T02:04:15Z
2020-11-09T00:06:22Z,42.805,6.029,13.2977,4.59978,2470.203,2020-11-09T02:07:18Z
2020-11-09T00:09:25Z,42.805,6.029,13.2976,4.59981,2470.203,2020-11-09T02:10:21Z
2020-11-09T00:12:28Z,42.805,6.029,13.2976,4.59978,2470.203,2020-11-09T02:13:24Z
2020-11-09T00:15:31Z,42.805,6.029,13.2978,4.59980,2470.217,2020-11-09T02:16:27Z
2020-11-09T00:18:34Z,42.805,6.029,13.2978,4.59979,2470.24,2020-11-09T02:19:30Z
2020-11-09T00:21:37Z,42.805,6.029,13.2977,4.59979,2470.194,2020-11-09T02:22:33Z
2020-11-09T00:24:41Z,42.805,6.029,13.2973,4.59979,2470.18,2020-11-09T02:25:37Z
2020-11-09T00:27:44Z,42.805,6.029,13.2980,4.59978,2470.24,2020-11-09T02:28:40Z
2020-11-09T00:30:47Z,42.805,6.029,13.2979,4.59978,2470.203,2020-11-09T02:31:43Z
2020-11-09T00:33:50Z,42.805,6.029,13.2976,4.59978,2470.203,2020-11-09T02:34:46Z
2020-11-09T00:36:53Z,42.805,6.029,13.2974,4.59978,2470.18,2020-11-09T02:37:49Z
2020-11-09T00:39:56Z,42.805,6.029,13.2977,4.59980,2470.18,2020-11-09T02:40:52Z
2020-11-09T00:42:59Z,42.805,6.029,13.2975,4.59978,2470.194,2020-11-09T02:43:55Z
2020-11-09T00:46:02Z,42.805,6.029,13.2976,4.59978,2470.227,2020-11-09T02:46:58Z
2020-11-09T00:49:06Z,42.805,6.029,13.2980,4.59978,2470.18,2020-11-09T02:50:02Z
2020-11-09T00:52:09Z,42.805,6.029,13.2976,4.59981,2470.194,2020-11-09T02:53:05Z
2020-11-09T00:55:12Z,42.805,6.029,13.2975,4.59981,2470.18,2020-11-09T02:56:08Z
2020-11-09T00:58:15Z,42.805,6.029,13.2978,4.59980,2470.203,2020-11-09T02:59:11Z
2020-11-09T01:01:18Z,42.805,6.029,13.2977,4.59979,2470.203,2020-11-09T03:02:14Z
2020-11-09T01:04:21Z,42.805,6.029,13.2973,4.59981,2470.203,2020-11-09T03:05:17Z
2020-11-09T01:07:24Z,42.805,6.029,13.2976,4.59979,2470.18,2020-11-09T03:08:20Z
2020-11-09T01:10:27Z,42.805,6.029,13.2974,4.59980,2470.217,2020-11-09T03:11:23Z
2020-11-09T01:13:30Z,42.805,6.029,13.2974,4.59979,2470.217,2020-11-09T03:14:26Z
2020-11-09T01:16:34Z,42.805,6.029,13.2975,4.59980,2470.203,2020-11-09T03:17:30Z
2020-11-09T01:19:37Z,42.805,6.029,13.2977,4.59979,2470.203,2020-11-09T03:20:33Z
2020-11-09T01:22:40Z,42.805,6.029,13.2980,4.59979,2470.227,2020-11-09T03:23:36Z
2020-11-09T01:25:43Z,42.805,6.029,13.2979,4.59980,2470.227,2020-11-09T03:26:39Z
2020-11-09T01:28:46Z,42.805,6.029,13.2976,4.59979,2470.203,2020-11-09T03:29:42Z
2020-11-09T01:31:49Z,42.805,6.029,13.2977,4.59981,2470.194,2020-11-09T03:32:45Z
2020-11-09T01:34:52Z,42.805,6.029,13.2981,4.59981,2470.171,2020-11-09T03:35:48Z
2020-11-09T01:37:55Z,42.805,6.029,13.2977,4.59981,2470.203,2020-11-09T03:38:51Z
2020-11-09T01:40:59Z,42.805,6.029,13.2974,4.59980,2470.203,2020-11-09T03:41:55Z
2020-11-09T01:44:02Z,42.805,6.029,13.2977,4.59981,2470.194,2020-11-09T03:44:58Z
2020-11-09T01:47:05Z,42.805,6.029,13.2979,4.59979,2470.203,2020-11-09T03:48:01Z
2020-11-09T01:50:08Z,42.805,6.029,13.2978,4.59978,2470.203,2020-11-09T03:51:04Z
2020-11-09T01:53:11Z,42.805,6.029,13.2975,4.59981,2470.217,2020-11-09T03:54:07Z
2020-11-09T01:56:14Z,42.805,6.029,13.2975,4.59979,2470.203,2020-11-09T03:57:10Z
2020-11-09T01:59:17Z,42.805,6.029,13.2976,4.59979,2470.171,2020-11-09T04:00:13Z
2020-11-09T02:02:20Z,42.805,6.029,13.2976,4.59980,2470.18,2020-11-09T04:03:16Z
2020-11-09T02:05:23Z,42.805,6.029,13.2977,4.59978,2470.203,2020-11-09T04:06:19Z
2020-11-09T02:08:27Z,42.805,6.029,13.2979,4.59981,2470.143,2020-11-09T04:09:23Z
2020-11-09T02:11:30Z,42.805,6.029,13.2976,4.59981,2470.194,2020-11-09T04:12:26Z
2020-11-09T02:14:33Z,42.805,6.029,13.2978,4.59979,2470.18,2020-11-09T04:15:29Z
2020-11-09T02:17:36Z,42.805,6.029,13.2972,4.59979,2470.24,2020-11-09T04:18:32Z
2020-11-09T02:20:39Z,42.805,6.029,13.2978,4.59979,2470.227,2020-11-09T04:21:35Z
2020-11-09T02:23:42Z,42.805,6.029,13.2976,4.59982,2470.203,2020-11-09T04:24:38Z
2020-11-09T02:26:45Z,42.805,6.029,13.2977,4.59979,2470.194,2020-11-09T04:27:41Z
2020-11-09T02:29:48Z,42.805,6.029,13.2973,4.59981,2470.194,2020-11-09T04:30:44Z
2020-11-09T02:32:52Z,42.805,6.029,13.2973,4.59981,2470.217,2020-11-09T04:33:48Z
2020-11-09T02:35:55Z,42.805,6.029,13.2976,4.59979,2470.203,2020-11-09T04:36:51Z
2020-11-09T02:38:58Z,42.805,6.029,13.2975,4.59979,2470.194,2020-11-09T04:39:54Z
2020-11-09T02:42:01Z,42.805,6.029,13.2977,4.59978,2470.227,2020-11-09T04:42:57Z
2020-11-09T02:45:04Z,42.805,6.029,13.2975,4.59979,2470.203,2020-11-09T04:46:00Z
2020-11-09T02:48:07Z,42.805,6.029,13.2974,4.59979,2470.194,2020-11-09T04:49:03Z
2020-11-09T02:51:10Z,42.805,6.029,13.2979,4.59978,2470.203,2020-11-09T04:52:06Z
2020-11-09T02:54:13Z,42.805,6.029,13.2976,4.59978,2470.156,2020-11-09T04:55:09Z
2020-11-09T02:57:16Z,42.805,6.029,13.2978,4.59978,2470.18,2020-11-09T04:58:12Z
2020-11-09T03:00:20Z,42.805,6.029,13.2979,4.59981,2470.171,2020-11-09T05:01:16Z
2020-11-09T03:03:23Z,42.805,6.029,13.2980,4.59979,2470.194,2020-11-09T05:04:19Z
2020-11-09T03:06:26Z,42.805,6.029,13.2976,4.59981,2470.203,2020-11-09T05:07:22Z
2020-11-09T03:09:29Z,42.805,6.029,13.2976,4.59980,2470.194,2020-11-09T05:10:25Z
2020-11-09T03:12:32Z,42.805,6.029,13.2977,4.59979,2470.18,2020-11-09T05:13:28Z
2020-11-09T03:15:35Z,42.805,6.029,13.2981,4.59979,2470.203,2020-11-09T05:16:31Z
2020-11-09T03:18:38Z,42.805,6.029,13.2978,4.59979,2470.203,2020-11-09T05:19:34Z
2020-11-09T03:21:41Z,42.805,6.029,13.2979,4.59979,2470.217,2020-11-09T05:22:37Z
2020-11-09T03:24:44Z,42.805,6.029,13.2978,4.59980,2470.18,2020-11-09T05:25:40Z
2020-11-09T03:27:48Z,42.805,6.029,13.2974,4.59980,2470.217,2020-11-09T05:28:44Z
2020-11-09T03:30:51Z,42.805,6.029,13.2976,4.59979,2470.194,2020-11-09T05:31:47Z
2020-11-09T03:33:54Z,42.805,6.029,13.2978,4.59981,2470.217,2020-11-09T05:34:50Z
2020-11-09T03:36:57Z,42.805,6.029,13.2972,4.59979,2470.18,2020-11-09T05:37:53Z
2020-11-09T03:40:00Z,42.805,6.029,13.2977,4.59980,2470.194,2020-11-09T05:40:56Z
2020-11-09T03:43:03Z,42.805,6.029,13.2974,4.59979,2470.18,2020-11-09T05:43:59Z
2020-11-09T03:46:06Z,42.805,6.029,13.2976,4.59978,2470.203,2020-11-09T05:47:02Z
2020-11-09T03:49:09Z,42.805,6.029,13.2980,4.59978,2470.217,2020-11-09T05:50:05Z
2020-11-09T03:52:12Z,42.805,6.029,13.2972,4.59979,2470.18,2020-11-09T05:53:09Z
2020-11-09T03:55:16Z,42.805,6.029,13.2979,4.59981,2470.217,2020-11-09T05:56:12Z
2020-11-09T03:58:19Z,42.805,6.029,13.2974,4.59980,2470.194,2020-11-09T05:59:15Z
2020-11-09T04:01:22Z,42.805,6.029,13.2979,4.59979,2470.227,2020-11-09T06:02:18Z
2020-11-09T04:04:25Z,42.805,6.029,13.2976,4.59980,2470.203,2020-11-09T06:05:21Z
2020-11-09T04:07:28Z,42.805,6.029,13.2976,4.59979,2470.18,2020-11-09T06:08:24Z
2020-11-09T04:10:31Z,42.805,6.029,13.2977,4.59979,2470.171,2020-11-09T06:11:27Z
2020-11-09T04:13:34Z,42.805,6.029,13.2981,4.59981,2470.217,2020-11-09T06:14:30Z
2020-11-09T04:16:37Z,42.805,6.029,13.2979,4.59979,2470.203,2020-11-09T06:17:33Z
2020-11-09T04:19:41Z,42.805,6.029,13.2978,4.59979,2470.18,2020-11-09T06:20:37Z
2020-11-09T04:22:44Z,42.805,6.029,13.2981,4.59979,2470.203,2020-11-09T06:23:40Z
2020-11-09T04:25:47Z,42.805,6.029,13.2979,4.59981,2470.203,2020-11-09T06:26:43Z
2020-11-09T04:28:50Z,42.805,6.029,13.2976,4.59979,2470.227,2020-11-09T06:29:46Z
2020-11-09T04:31:53Z,42.805,6.029,13.2976,4.59978,2470.194,2020-11-09T06:32:49Z
2020-11-09T04:34:56Z,42.805,6.029,13.2978,4.59978,2470.203,2020-11-09T06:35:52Z
2020-11-09T04:37:59Z,42.805,6.029,13.2979,4.59978,2470.18,2020-11-09T06:38:55Z
2020-11-09T04:41:02Z,42.805,6.029,13.2976,4.59980,2470.194,2020-11-09T06:41:58Z
2020-11-09T04:44:05Z,42.805,6.029,13.2982,4.59978,2470.18,2020-11-09T06:45:02Z
2020-11-09T04:47:09Z,42.805,6.029,13.2979,4.59978,2470.217,2020-11-09T06:48:05Z
2020-11-09T04:50:12Z,42.805,6.029,13.2979,4.59978,2470.194,2020-11-09T06:51:08Z
2020-11-09T04:53:15Z,42.805,6.029,13.2979,4.59978,2470.171,2020-11-09T06:54:11Z
2020-11-09T04:56:18Z,42.805,6.029,13.2976,4.59978,2470.156,2020-11-09T06:57:14Z
2020-11-09T04:59:21Z,42.805,6.029,13.2980,4.59978,2470.18,2020-11-09T07:00:17Z
2020-11-09T05:02:24Z,42.805,6.029,13.2980,4.59979,2470.194,2020-11-09T07:03:20Z
2020-11-09T05:05:27Z,42.805,6.029,13.2976,4.59979,2470.203,2020-11-09T07:06:23Z
2020-11-09T05:08:30Z,42.805,6.029,13.2978,4.59978,2470.156,2020-11-09T07:09:26Z
2020-11-09T05:11:34Z,42.805,6.029,13.2977,4.59978,2470.18,2020-11-09T07:12:30Z
2020-11-09T05:14:37Z,42.805,6.029,13.2981,4.59978,2470.18,2020-11-09T07:15:33Z
2020-11-09T05:17:40Z,42.805,6.029,13.2977,4.59980,2470.156,2020-11-09T07:18:36Z
2020-11-09T05:20:43Z,42.805,6.029,13.2976,4.59978,2470.156,2020-11-09T07:21:39Z
2020-11-09T05:23:46Z,42.805,6.029,13.2973,4.59978,2470.156,2020-11-09T07:24:42Z
2020-11-09T05:26:49Z,42.805,6.029,13.2978,4.59978,2470.194,2020-11-09T07:27:45Z
2020-11-09T05:29:52Z,42.805,6.029,13.2976,4.59978,2470.133,2020-11-09T07:30:48Z
2020-11-09T05:32:55Z,42.805,6.029,13.2976,4.59978,2470.194,2020-11-09T07:33:51Z
2020-11-09T05:35:58Z,42.805,6.029,13.2976,4.59978,2470.156,2020-11-09T07:36:55Z
2020-11-09T05:39:02Z,42.805,6.029,13.2976,4.59979,2470.18,2020-11-09T07:39:58Z
2020-11-09T05:42:05Z,42.805,6.029,13.2979,4.59978,2470.147,2020-11-09T07:43:01Z
2020-11-09T05:45:08Z,42.805,6.029,13.2978,4.59978,2470.203,2020-11-09T07:46:04Z
2020-11-09T05:48:11Z,42.805,6.029,13.2980,4.59979,2470.156,2020-11-09T07:49:07Z
2020-11-09T05:51:14Z,42.805,6.029,13.2975,4.59979,2470.194,2020-11-09T07:52:10Z
2020-11-09T05:54:17Z,42.805,6.029,13.2976,4.59979,2470.156,2020-11-09T07:55:13Z
2020-11-09T05:57:20Z,42.805,6.029,13.2975,4.59980,2470.156,2020-11-09T07:58:16Z
2020-11-09T06:00:23Z,42.805,6.029,13.2977,4.59978,2470.156,2020-11-09T08:01:19Z
2020-11-09T06:03:27Z,42.805,6.029,13.2974,4.59979,2470.133,2020-11-09T08:04:23Z
2020-11-09T06:06:30Z,42.805,6.029,13.2977,4.59978,2470.156,2020-11-09T08:07:26Z
2020-11-09T06:09:33Z,42.805,6.029,13.2978,4.59979,2470.156,2020-11-09T08:10:29Z
2020-11-09T06:12:36Z,42.805,6.029,13.2976,4.59978,2470.194,2020-11-09T08:13:32Z
2020-11-09T06:15:39Z,42.805,6.029,13.2979,4.59979,2470.156,2020-11-09T08:16:35Z
2020-11-09T06:18:42Z,42.805,6.029,13.2974,4.59979,2470.194,2020-11-09T08:19:38Z
2020-11-09T06:21:45Z,42.805,6.029,13.2974,4.59978,2470.156,2020-11-09T08:22:41Z
2020-11-09T06:24:48Z,42.805,6.029,13.2980,4.59978,2470.171,2020-11-09T08:25:44Z
2020-11-09T06:27:51Z,42.805,6.029,13.2979,4.59978,2470.18,2020-11-09T08:28:48Z
2020-11-09T06:30:55Z,42.805,6.029,13.2975,4.59978,2470.156,2020-11-09T08:31:51Z
2020-11-09T06:33:58Z,42.805,6.029,13.2978,4.59978,2470.194,2020-11-09T08:34:54Z
2020-11-09T06:37:01Z,42.805,6.029,13.2977,4.59978,2470.156,2020-11-09T08:37:57Z
2020-11-09T06:40:04Z,42.805,6.029,13.2977,4.59978,2470.156,2020-11-09T08:41:00Z
2020-11-09T06:43:07Z,42.805,6.029,13.2976,4.59978,2470.11,2020-11-09T08:44:03Z
2020-11-09T06:46:10Z,42.805,6.029,13.2978,4.59979,2470.133,2020-11-09T08:47:06Z
2020-11-09T06:49:13Z,42.805,6.029,13.2976,4.59978,2470.133,2020-11-09T08:50:09Z
2020-11-09T06:52:16Z,42.805,6.029,13.2979,4.59978,2470.133,2020-11-09T08:53:12Z
2020-11-09T06:55:20Z,42.805,6.029,13.2977,4.59979,2470.194,2020-11-09T08:56:16Z
2020-11-09T06:58:23Z,42.805,6.029,13.2977,4.59979,2470.171,2020-11-09T08:59:19Z
2020-11-09T07:01:26Z,42.805,6.029,13.2976,4.59978,2470.171,2020-11-09T09:02:22Z
2020-11-09T07:04:29Z,42.805,6.029,13.2978,4.59978,2470.156,2020-11-09T09:05:25Z
2020-11-09T07:07:32Z,42.805,6.029,13.2979,4.59979,2470.18,2020-11-09T09:08:28Z
2020-11-09T07:10:35Z,42.805,6.029,13.2978,4.59978,2470.147,2020-11-09T09:11:31Z
2020-11-09T07:13:38Z,42.805,6.029,13.2974,4.59978,2470.147,2020-11-09T09:14:34Z
2020-11-09T07:16:41Z,42.805,6.029,13.2980,4.59979,2470.156,2020-11-09T09:17:37Z
2020-11-09T07:19:44Z,42.805,6.029,13.2979,4.59978,2470.18,2020-11-09T09:20:40Z
2020-11-09T07:22:48Z,42.805,6.029,13.2976,4.59981,2470.156,2020-11-09T09:23:44Z
2020-11-09T07:25:51Z,42.805,6.029,13.2979,4.59980,2470.156,2020-11-09T09:26:47Z
2020-11-09T07:28:54Z,42.805,6.029,13.2976,4.59978,2470.18,2020-11-09T09:29:50Z
2020-11-09T07:31:57Z,42.805,6.029,13.2977,4.59978,2470.156,2020-11-09T09:32:53Z
2020-11-09T07:35:00Z,42.805,6.029,13.2976,4.59978,2470.156,2020-11-09T09:35:56Z
2020-11-09T07:38:03Z,42.805,6.029,13.2976,4.59979,2470.147,2020-11-09T09:38:59Z
2020-11-09T07:41:06Z,42.805,6.029,13.2978,4.59978,2470.156,2020-11-09T09:42:02Z
2020-11-09T07:44:09Z,42.805,6.029,13.2976,4.59978,2470.171,2020-11-09T09:45:05Z
2020-11-09T07:47:13Z,42.805,6.029,13.2978,4.59978,2470.156,2020-11-09T09:48:09Z
2020-11-09T07:50:16Z,42.805,6.029,13.2976,4.59979,2470.156,2020-11-09T09:51:12Z
2020-11-09T07:53:19Z,42.805,6.029,13.2977,4.59978,2470.147,2020-11-09T09:54:15Z
2020-11-09T07:56:22Z,42.805,6.029,13.2981,4.59978,2470.156,2020-11-09T09:57:18Z
2020-11-09T07:59:25Z,42.805,6.029,13.2977,4.59981,2470.156,2020-11-09T10:00:21Z
2020-11-09T08:02:28Z,42.805,6.029,13.2976,4.59979,2470.156,2020-11-09T10:03:24Z
2020-11-09T08:05:31Z,42.805,6.029,13.2976,4.59979,2470.156,2020-11-09T10:06:27Z
2020-11-09T08:08:34Z,42.805,6.029,13.2979,4.59978,2470.156,2020-11-09T10:09:30Z
2020-11-09T08:11:37Z,42.805,6.029,13.2977,4.59978,2470.156,2020-11-09T10:12:34Z
2020-11-09T08:14:41Z,42.805,6.029,13.2979,4.59978,2470.156,2020-11-09T10:15:37Z
2020-11-09T08:17:44Z,42.805,6.029,13.2980,4.59978,2470.147,2020-11-09T10:18:40Z
2020-11-09T08:20:47Z,42.805,6.029,13.2976,4.59978,2470.156,2020-11-09T10:21:43Z
2020-11-09T08:23:50Z,42.805,6.029,13.2973,4.59978,2470.156,2020-11-09T10:24:46Z
2020-11-09T08:26:53Z,42.805,6.029,13.2980,4.59978,2470.156,2020-11-09T10:27:49Z
2020-11-09T08:29:56Z,42.805,6.029,13.2976,4.59978,2470.147,2020-11-09T10:30:52Z
2020-11-09T08:32:59Z,42.805,6.029,13.2978,4.59978,2470.133,2020-11-09T10:33:55Z
2020-11-09T08:36:02Z,42.805,6.029,13.2977,4.59978,2470.194,2020-11-09T10:36:59Z
2020-11-09T08:39:06Z,42.805,6.029,13.2976,4.59979,2470.156,2020-11-09T10:40:02Z
2020-11-09T08:42:09Z,42.805,6.029,13.2976,4.59979,2470.156,2020-11-09T10:43:05Z
2020-11-09T08:45:12Z,42.805,6.029,13.2977,4.59979,2470.156,2020-11-09T10:46:08Z
2020-11-09T08:48:15Z,42.805,6.029,13.2981,4.59978,2470.133,2020-11-09T10:49:11Z
2020-11-09T08:51:18Z,42.805,6.029,13.2976,4.59978,2470.156,2020-11-09T10:52:14Z
2020-11-09T08:54:21Z,42.805,6.029,13.2979,4.59978,2470.194,2020-11-09T10:55:17Z
2020-11-09T08:57:24Z,42.805,6.029,13.2978,4.59979,2470.171,2020-11-09T10:58:20Z
2020-11-09T09:00:27Z,42.805,6.029,13.2979,4.59978,2470.194,2020-11-09T11:01:24Z
2020-11-09T09:03:31Z,42.805,6.029,13.2979,4.59978,2470.194,2020-11-09T11:04:27Z
2020-11-09T09:06:34Z,42.805,6.029,13.2976,4.59978,2470.156,2020-11-09T11:07:30Z
2020-11-09T09:09:37Z,42.805,6.029,13.2979,4.59979,2470.18,2020-11-09T11:10:33Z
2020-11-09T09:12:40Z,42.805,6.029,13.2982,4.59979,2470.194,2020-11-09T11:13:36Z
2020-11-09T09:15:43Z,42.805,6.029,13.2976,4.59979,2470.156,2020-11-09T11:16:39Z
2020-11-09T09:18:46Z,42.805,6.029,13.2978,4.59978,2470.18,2020-11-09T11:19:42Z
2020-11-09T09:21:49Z,42.805,6.029,13.2981,4.59978,2470.18,2020-11-09T11:22:45Z
2020-11-09T09:24:52Z,42.805,6.029,13.2979,4.59978,2470.18,2020-11-09T11:25:49Z
2020-11-09T09:27:56Z,42.805,6.029,13.2978,4.59979,2470.18,2020-11-09T11:28:52Z
2020-11-09T09:30:59Z,42.805,6.029,13.2978,4.59979,2470.156,2020-11-09T11:31:55Z
2020-11-09T09:34:02Z,42.805,6.029,13.2979,4.59979,2470.217,2020-11-09T11:34:58Z
2020-11-09T09:37:05Z,42.805,6.029,13.2981,4.59979,2470.203,2020-11-09T11:38:01Z
2020-11-09T09:40:08Z,42.805,6.029,13.2978,4.59979,2470.227,2020-11-09T11:41:04Z
2020-11-09T09:43:11Z,42.805,6.029,13.2980,4.59979,2470.18,2020-11-09T11:44:07Z
2020-11-09T09:46:14Z,42.805,6.029,13.2978,4.59980,2470.217,2020-11-09T11:47:10Z
2020-11-09T09:49:17Z,42.805,6.029,13.2984,4.59979,2470.18,2020-11-09T11:50:13Z
2020-11-09T09:52:21Z,42.805,6.029,13.2976,4.59979,2470.203,2020-11-09T11:53:17Z
2020-11-09T09:55:24Z,42.805,6.029,13.2979,4.59978,2470.227,2020-11-09T11:56:20Z
2020-11-09T09:58:27Z,42.805,6.029,13.2981,4.59979,2470.203,2020-11-09T11:59:23Z
2020-11-09T10:01:30Z,42.805,6.029,13.2976,4.59979,2470.227,2020-11-09T12:02:26Z
2020-11-09T10:04:33Z,42.805,6.029,13.2979,4.59979,2470.217,2020-11-09T12:05:29Z
2020-11-09T10:07:36Z,42.805,6.029,13.2979,4.59979,2470.203,2020-11-09T12:08:32Z
2020-11-09T10:10:39Z,42.805,6.029,13.2977,4.59979,2470.227,2020-11-09T12:11:35Z
2020-11-09T10:13:42Z,42.805,6.029,13.2978,4.59979,2470.203,2020-11-09T12:14:38Z
2020-11-09T10:16:46Z,42.805,6.029,13.2976,4.59979,2470.203,2020-11-09T12:17:42Z
2020-11-09T10:19:49Z,42.805,6.029,13.2979,4.59980,2470.189,2020-11-09T12:20:45Z
2020-11-09T10:22:52Z,42.805,6.029,13.2976,4.59979,2470.203,2020-11-09T12:23:48Z
2020-11-09T10:25:55Z,42.805,6.029,13.2980,4.59980,2470.227,2020-11-09T12:26:51Z
2020-11-09T10:28:58Z,42.805,6.029,13.2974,4.59980,2470.25,2020-11-09T12:29:54Z
2020-11-09T10:32:01Z,42.805,6.029,13.2976,4.59979,2470.203,2020-11-09T12:32:57Z
2020-11-09T10:35:04Z,42.805,6.029,13.2976,4.59979,2470.227,2020-11-09T12:36:00Z
2020-11-09T10:38:07Z,42.805,6.029,13.2977,4.59980,2470.24,2020-11-09T12:39:03Z
2020-11-09T10:41:11Z,42.805,6.029,13.2976,4.59980,2470.227,2020-11-09T12:42:07Z
2020-11-09T10:44:14Z,42.805,6.029,13.2977,4.59979,2470.227,2020-11-09T12:45:10Z
2020-11-09T10:47:17Z,42.805,6.029,13.2977,4.59979,2470.25,2020-11-09T12:48:13Z
2020-11-09T10:50:20Z,42.805,6.029,13.2977,4.59980,2470.203,2020-11-09T12:51:16Z
2020-11-09T10:53:23Z,42.805,6.029,13.2978,4.59980,2470.217,2020-11-09T12:54:19Z
2020-11-09T10:56:26Z,42.805,6.029,13.2981,4.59980,2470.203,2020-11-09T12:57:22Z
2020-11-09T10:59:29Z,42.805,6.029,13.2978,4.59979,2470.264,2020-11-09T13:00:25Z
2020-11-09T11:02:32Z,42.805,6.029,13.2978,4.59979,2470.24,2020-11-09T13:03:28Z
2020-11-09T11:05:35Z,42.805,6.029,13.2979,4.59980,2470.24,2020-11-09T13:06:32Z
2020-11-09T11:08:39Z,42.805,6.029,13.2979,4.59980,2470.24,2020-11-09T13:09:35Z
2020-11-09T11:11:42Z,42.805,6.029,13.2976,4.59979,2470.25,2020-11-09T13:12:38Z
2020-11-09T11:14:45Z,42.805,6.029,13.2979,4.59980,2470.264,2020-11-09T13:15:41Z
2020-11-09T11:17:48Z,42.805,6.029,13.2979,4.59980,2470.287,2020-11-09T13:18:44Z
2020-11-09T11:20:51Z,42.805,6.029,13.2981,4.59981,2470.25,2020-11-09T13:21:47Z
2020-11-09T11:23:54Z,42.805,6.029,13.2979,4.59980,2470.25,2020-11-09T13:24:50Z
2020-11-09T11:26:57Z,42.805,6.029,13.2979,4.59980,2470.217,2020-11-09T13:27:53Z
2020-11-09T11:30:00Z,42.805,6.029,13.2974,4.59980,2470.24,2020-11-09T13:30:57Z
2020-11-09T11:33:04Z,42.805,6.029,13.2978,4.59980,2470.24,2020-11-09T13:34:00Z
2020-11-09T11:36:07Z,42.805,6.029,13.2979,4.59980,2470.227,2020-11-09T13:37:03Z
2020-11-09T11:39:10Z,42.805,6.029,13.2979,4.59981,2470.25,2020-11-09T13:40:06Z
2020-11-09T11:42:13Z,42.805,6.029,13.2979,4.59981,2470.264,2020-11-09T13:43:09Z
2020-11-09T11:45:16Z,42.805,6.029,13.2979,4.59982,2470.25,2020-11-09T13:46:12Z
2020-11-09T11:48:19Z,42.805,6.029,13.2976,4.59981,2470.287,2020-11-09T13:49:15Z
2020-11-09T11:51:22Z,42.805,6.029,13.2982,4.59981,2470.273,2020-11-09T13:52:18Z
2020-11-09T11:54:25Z,42.805,6.029,13.2976,4.59981,2470.264,2020-11-09T13:55:21Z
2020-11-09T11:57:29Z,42.805,6.029,13.2979,4.59980,2470.273,2020-11-09T13:58:25Z
2020-11-09T12:00:32Z,42.805,6.029,13.2980,4.59981,2470.287,2020-11-09T14:01:28Z
2020-11-09T12:03:35Z,42.805,6.029,13.2978,4.59980,2470.273,2020-11-09T14:04:31Z
2020-11-09T12:06:38Z,42.805,6.029,13.2980,4.59981,2470.273,2020-11-09T14:07:34Z
2020-11-09T12:09:41Z,42.805,6.029,13.2977,4.59980,2470.273,2020-11-09T14:10:37Z
2020-11-09T12:12:44Z,42.805,6.029,13.2979,4.59980,2470.25,2020-11-09T14:13:40Z
2020-11-09T12:15:47Z,42.805,6.029,13.2975,4.59981,2470.287,2020-11-09T14:16:43Z
2020-11-09T12:18:50Z,42.805,6.029,13.2979,4.59980,2470.264,2020-11-09T14:19:46Z
2020-11-09T12:21:53Z,42.805,6.029,13.2980,4.59980,2470.287,2020-11-09T14:22:50Z
2020-11-09T12:24:57Z,42.805,6.029,13.2977,4.59980,2470.31,2020-11-09T14:25:53Z
2020-11-09T12:28:00Z,42.805,6.029,13.2978,4.59980,2470.31,2020-11-09T14:28:56Z
2020-11-09T12:31:03Z,42.805,6.029,13.2977,4.59981,2470.264,2020-11-09T14:31:59Z
2020-11-09T12:34:06Z,42.805,6.029,13.2979,4.59980,2470.273,2020-11-09T14:35:02Z
2020-11-09T12:37:09Z,42.805,6.029,13.2976,4.59981,2470.273,2020-11-09T14:38:05Z
2020-11-09T12:40:12Z,42.805,6.029,13.2978,4.59981,2470.25,2020-11-09T14:41:08Z
2020-11-09T12:43:15Z,42.805,6.029,13.2980,4.59980,2470.287,2020-11-09T14:44:11Z
2020-11-09T12:46:18Z,42.805,6.029,13.2979,4.59981,2470.297,2020-11-09T14:47:15Z
2020-11-09T12:49:22Z,42.805,6.029,13.2974,4.59980,2470.287,2020-11-09T14:50:18Z
2020-11-09T12:52:25Z,42.805,6.029,13.2980,4.59980,2470.25,2020-11-09T14:53:21Z
2020-11-09T12:55:28Z,42.805,6.029,13.2977,4.59980,2470.287,2020-11-09T14:56:24Z
2020-11-09T12:58:31Z,42.805,6.029,13.2979,4.59980,2470.273,2020-11-09T14:59:27Z
2020-11-09T13:01:34Z,42.805,6.029,13.2980,4.59981,2470.264,2020-11-09T15:02:30Z
2020-11-09T13:04:37Z,42.805,6.029,13.2979,4.59980,2470.297,2020-11-09T15:05:33Z
2020-11-09T13:07:40Z,42.805,6.029,13.2977,4.59979,2470.297,2020-11-09T15:08:36Z
2020-11-09T13:10:43Z,42.805,6.029,13.2979,4.59979,2470.273,2020-11-09T15:11:40Z
2020-11-09T13:13:47Z,42.805,6.029,13.2979,4.59979,2470.273,2020-11-09T15:14:43Z
2020-11-09T13:16:50Z,42.805,6.029,13.2980,4.59980,2470.297,2020-11-09T15:17:46Z
2020-11-09T13:19:53Z,42.805,6.029,13.2978,4.59980,2470.297,2020-11-09T15:20:49Z
2020-11-09T13:22:56Z,42.805,6.029,13.2979,4.59980,2470.273,2020-11-09T15:23:52Z
2020-11-09T13:25:59Z,42.805,6.029,13.2979,4.59979,2470.297,2020-11-09T15:26:55Z
2020-11-09T13:29:02Z,42.805,6.029,13.2978,4.59980,2470.273,2020-11-09T15:29:58Z
2020-11-09T13:32:05Z,42.805,6.029,13.2976,4.59980,2470.273,2020-11-09T15:33:01Z
2020-11-09T13:35:08Z,42.805,6.029,13.2977,4.59979,2470.31,2020-11-09T15:36:04Z
2020-11-09T13:38:12Z,42.805,6.029,13.2980,4.59980,2470.297,2020-11-09T15:39:08Z
2020-11-09T13:41:15Z,42.805,6.029,13.2978,4.59981,2470.297,2020-11-09T15:42:11Z
2020-11-09T13:44:18Z,42.805,6.029,13.2977,4.59980,2470.273,2020-11-09T15:45:14Z
2020-11-09T13:47:21Z,42.805,6.029,13.2982,4.59979,2470.31,2020-11-09T15:48:17Z
2020-11-09T13:50:24Z,42.805,6.029,13.2976,4.59980,2470.334,2020-11-09T15:51:20Z
2020-11-09T13:53:27Z,42.805,6.029,13.2978,4.59979,2470.31,2020-11-09T15:54:23Z
2020-11-09T13:56:30Z,42.805,6.029,13.2977,4.59979,2470.297,2020-11-09T15:57:26Z
2020-11-09T13:59:33Z,42.805,6.029,13.2978,4.59979,2470.297,2020-11-09T16:00:29Z
2020-11-09T14:02:36Z,42.805,6.029,13.2977,4.59980,2470.334,2020-11-09T16:03:33Z
2020-11-09T14:05:40Z,42.805,6.029,13.2980,4.59980,2470.287,2020-11-09T16:06:36Z
2020-11-09T14:08:43Z,42.805,6.029,13.2976,4.59979,2470.273,2020-11-09T16:09:39Z
2020-11-09T14:11:46Z,42.805,6.029,13.2974,4.59980,2470.287,2020-11-09T16:12:42Z
2020-11-09T14:14:49Z,42.805,6.029,13.2975,4.59979,2470.297,2020-11-09T16:15:45Z
2020-11-09T14:17:52Z,42.805,6.029,13.2979,4.59979,2470.273,2020-11-09T16:18:48Z
2020-11-09T14:20:55Z,42.805,6.029,13.2978,4.59980,2470.297,2020-11-09T16:21:51Z
2020-11-09T14:23:58Z,42.805,6.029,13.2977,4.59980,2470.31,2020-11-09T16:24:54Z
2020-11-09T14:27:02Z,42.805,6.029,13.2977,4.59979,2470.273,2020-11-09T16:27:58Z
2020-11-09T14:30:05Z,42.805,6.029,13.2976,4.59979,2470.31,2020-11-09T16:31:01Z
2020-11-09T14:33:08Z,42.805,6.029,13.2977,4.59980,2470.273,2020-11-09T16:34:04Z
2020-11-09T14:36:11Z,42.805,6.029,13.2979,4.59980,2470.287,2020-11-09T16:37:07Z
2020-11-09T14:39:14Z,42.805,6.029,13.2983,4.59980,2470.273,2020-11-09T16:40:10Z
2020-11-09T14:42:17Z,42.805,6.029,13.2975,4.59979,2470.273,2020-11-09T16:43:13Z
2020-11-09T14:45:20Z,42.805,6.029,13.2981,4.59979,2470.273,2020-11-09T16:46:16Z
2020-11-09T14:48:23Z,42.805,6.029,13.2981,4.59979,2470.273,2020-11-09T16:49:19Z
2020-11-09T14:51:26Z,42.805,6.029,13.2979,4.59980,2470.273,2020-11-09T16:52:23Z
2020-11-09T14:54:30Z,42.805,6.029,13.2979,4.59980,2470.297,2020-11-09T16:55:26Z
2020-11-09T14:57:33Z,42.805,6.029,13.2976,4.59979,2470.297,2020-11-09T16:58:29Z